This demonstration page uses our WeatherBlox Daily Observations layout. Learn more.

Left ArrowRight Arrow

38.20091, -84.87328

Hourly Observations for February 24, 2022

Temp ( °F °C ) Dew Point ( °F °C ) Humidity (%) Winds ( mph kmh ) Pressure ( in mb ) Visibility ( mi km ) Precip ( " mm )
12:53 am 00:53 Cloudy 32 0 26 -3.3 79 79 NNE 12 19 30.29 1026 10 16 0.00 0.00
1:53 am 01:53 Cloudy 32 0 26 -3.3 79 79 NE 9 15 30.28 1026 10 16 0.00 0.00
2:53 am 02:53 Cloudy 32 0 26 -3.3 79 79 NNE 8 13 30.28 1025 N/A 0.00 0.00
3:53 am 03:53 Cloudy 32 0 26 -3.3 79 79 ENE 9 15 30.25 1024 10 16 0.00 0.00
4:53 am 04:53 Cloudy 32 0 26 -3.3 79 79 NNE 9 15 30.25 1025 9 14 0.00 0.00
5:34 am 05:34 Cloudy with Mist and Fog 31 -0.6 27 -2.8 85 85 NNE 7 11 30.27 1025 4 6 0.00 0.00
5:53 am 05:53 Cloudy with Mist and Fog 31 -0.6 28 -2.2 89 89 NNE 9 15 30.25 1024 4 6 0.00 0.00
6:25 am 06:25 Cloudy with Mist and Fog 31 -0.6 29 -1.7 92 92 NNE 9 15 30.28 1026 3 5 0.00 0.00
6:32 am 06:32 Cloudy with Light Freezing Rain 31 -0.6 28 -2.2 89 89 NE 7 11 30.29 1026 2 3 0.00 0.00
6:53 am 06:53 Cloudy with Light Freezing Rain 31 -0.6 29 -1.7 92 92 NNE 7 11 30.28 1026 2 3 0.00 0.00
7:01 am 07:01 Cloudy with Light Freezing Rain 31 -0.6 29 -1.7 92 92 NNE 8 13 30.30 1026 2 3 0.01 0.25
7:08 am 07:08 Cloudy with Light Freezing Rain 31 -0.6 29 -1.7 92 92 NNE 7 11 30.31 1027 2 3 0.01 0.25
7:18 am 07:18 Cloudy with Mist and Fog 31 -0.6 29 -1.7 92 92 NNE 10 17 30.31 1027 3 4 0.01 0.25
7:27 am 07:27 Cloudy with Mist and Fog 31 -0.6 28 -2.2 89 89 NE 7 11 30.30 1026 3 5 0.01 0.25
7:38 am 07:38 Cloudy with Mist and Fog 31 -0.6 29 -1.7 92 92 NE 7 11 30.30 1026 2 3 0.01 0.25
7:53 am 07:53 Cloudy with Mist and Fog 31 -0.6 29 -1.7 92 92 NE 9 15 30.28 1025 2 3 0.01 0.25
8:00 am 08:00 Cloudy with Mist and Fog 31 -0.6 29 -1.7 92 92 ENE 9 15 30.30 1026 2 3 0.00 0.00
8:12 am 08:12 Cloudy with Mist and Fog 31 -0.6 29 -1.7 92 92 NE 9 15 30.31 1027 4 6 0.00 0.00
8:53 am 08:53 Cloudy with Mist and Fog 32 0 29 -1.7 88 88 NE 7 11 30.29 1026 6 10 0.00 0.00
9:53 am 09:53 Cloudy 33 0.6 30 -1.1 89 89 ENE 10 17 30.29 1026 8 13 0.00 0.00
10:14 am 10:14 Cloudy 33 0.6 30 -1.1 89 89 NE 9 15 30.32 1027 8 13 0.00 0.00
10:53 am 10:53 Cloudy 35 1.7 32 0 89 89 E 8 13 30.27 1025 8 13 0.00 0.00
11:53 am 11:53 Cloudy 37 2.8 33 0.6 86 86 E 8 13 30.26 1025 10 16 0.00 0.00
12:53 pm 12:53 Cloudy 38 3.3 34 1.1 86 86 E 8 13 30.24 1024 10 16 0.00 0.00
1:53 pm 13:53 Cloudy 39 3.9 35 1.7 86 86 E 10 17 30.17 1022 10 16 0.00 0.00
2:51 pm 14:51 Cloudy 39 4 36 2 87 87 E 9 15 30.16 1021 9 14 0.00 0.00
2:53 pm 14:53 Cloudy 40 4.4 36 2.2 86 86 ESE 8 13 30.14 1021 9 14 0.00 0.00
3:39 pm 15:39 Cloudy with Heavy Rain 39 3.9 36 2.2 89 89 E 9 15 30.13 1020 2 3 0.05 1.27
3:53 pm 15:53 Cloudy with Light Rain 39 3.9 37 2.8 93 93 ESE 6 9 30.13 1020 3 4 0.10 2.54
4:14 pm 16:14 Cloudy with Rain 39 3.9 37 2.8 93 93 ESE 6 9 30.12 1020 2 3 0.06 1.52
4:16 pm 16:16 Cloudy with Rain 39 3.9 37 2.8 93 93 E 7 11 30.12 1020 2 3 0.06 1.52
4:46 pm 16:46 Cloudy with Rain 38 3.3 37 2.8 97 97 E 7 11 30.12 1020 2 3 0.18 4.57
4:53 pm 16:53 Cloudy with Nearby Thunderstorms 38 3.3 37 2.8 97 97 ENE 7 11 30.09 1019 2 3 0.20 5.08
5:14 pm 17:14 Cloudy with Strong Thunderstorms 38 3.3 37 2.8 97 97 E 7 11 30.10 1019 1 2 0.19 4.83
5:30 pm 17:30 Cloudy with Nearby Thunderstorms 38 3.3 37 2.8 97 97 ESE 7 11 30.11 1020 2 2 0.29 7.37
5:37 pm 17:37 Cloudy with Strong Thunderstorms 38 3.3 37 2.8 97 97 E 6 9 30.11 1020 1 2 0.35 8.89
5:53 pm 17:53 Cloudy with Thunderstorms 38 3.3 37 2.8 97 97 ESE 7 11 30.09 1019 2 3 0.45 11.43
6:05 pm 18:05 Cloudy with Heavy Rain 38 3.3 37 2.8 97 97 ENE 3 6 30.11 1020 2 3 0.07 1.78
6:10 pm 18:10 Cloudy with Rain 38 3.3 37 2.8 97 97 E 7 11 30.09 1019 2 3 0.10 2.54
6:17 pm 18:17 Cloudy with Heavy Rain 38 3.3 37 2.8 97 97 ESE 6 9 30.10 1019 2 3 0.15 3.81
6:36 pm 18:36 Cloudy with Light Rain 38 3.3 37 2.8 97 97 ESE 6 9 30.09 1019 4 6 0.20 5.08
6:53 pm 18:53 Cloudy with Rain 38 3.3 37 2.8 97 97 Calm 30.09 1019 4 6 0.25 6.35
7:15 pm 19:15 Cloudy with Rain 38 3.3 37 2.8 97 97 Calm 30.11 1020 4 6 0.06 1.52
7:53 pm 19:53 Cloudy with Light Rain 38 3.3 37 2.8 97 97 SE 7 11 30.08 1019 6 10 0.08 2.03
8:13 pm 20:13 Cloudy with Light Rain 38 3.3 37 2.8 97 97 E 6 9 30.07 1018 5 8 0.02 0.51
8:53 pm 20:53 Cloudy 39 3.9 37 2.8 93 93 SE 6 9 30.03 1017 10 16 0.02 0.51
9:11 pm 21:11 Cloudy with Light Rain 39 3.9 37 2.8 93 93 SSE 8 13 30.05 1018 7 11 0.01 0.25
9:51 pm 21:51 Cloudy with Light Rain 39 4 37 3 93 93 SE 8 13 30.03 1017 3 5 0.02 0.51
9:53 pm 21:53 Cloudy with Light Rain 40 4.4 38 3.3 93 93 SSE 6 9 30.01 1016 3 5 0.02 0.51
10:31 pm 22:31 Cloudy with Light Rain 41 5 40 4.4 96 96 SSE 9 15 30.01 1016 4 6 0.03 0.76
10:53 pm 22:53 Cloudy with Light Rain 41 5 40 4.4 96 96 SSE 7 11 29.98 1015 3 5 0.05 1.27
11:09 pm 23:09 Cloudy 42 5.6 41 5 96 96 S 7 11 29.99 1016 8 13 0.01 0.25
11:53 pm 23:53 Cloudy with Mist and Fog 42 5.6 41 5 96 96 SW 7 11 29.97 1015 3 5 0.01 0.25

Powered by AerisWeather